Погода в Перми

Погода в Перми : погода сейчас, прогноз погоды и архив. Всё, что Вы хотите узнать о погоде в Перми!

Хотите узнать прогноз погоды в Перми? Тогда Вам сюда: Погода в Перми

Поиск расширенной информации на нашем сайте:

Другие новости

Новости СМИ2

Главная страница сайта

Новости сайта

03.07.2017

Напоминаем, что на нашем специализированном сайте Метеоцентр.Азия вы можете получить высокодетализированные автоматические прогнозы погоды по пунктам России, СНГ и мира в авиационном формате (включающие направление и скорость ветра, видимость, явления погоды, количество и форму облачности, нижнюю и верхнюю границу облачности).

Рекомендуем: Свежая информация - передние амортизаторы Daewoo Lanos - актуальная информация!

Погода в Перми - сегодня

Время (UTC), дата Ветер
(°,м/с) 
Видим.   Явления Облачность Т
(°С)
Тd
(°С)
f(%) Тe
(°С)
Pmin
(гПа)
dP
(гПа)
Po
(мм)
O2
(г/м3)
Тmin Tmax R s Состояние
почвы
21 19.07.17 140 (ЮВ) 20000 м    1/1 1000 м 
[Sc]
+14.5 +13.3 92 +22  1014.4  -0.3  746  283           
00 20.07.17 170 (Ю) 20000 м    1/1 1000 м 
[Sc]
+13 +12 94 +18  1014.6  746  284           
03 20.07.17 260 (З) 20000 м    ясно 
+19 +14.5 75 +29  1014.7  0.6  746  278  +13        сухая 
06 20.07.17 350 (С) 20000 м    5/5 1000 м 
[Cu med, cong]
+22.8 +12.9 54 +28  1014.1  -0.3  746  275           
09 20.07.17 350 (С) 20000 м    8/8 1000 м кучево-дожд. 
[Cb calv]
+24.2 +13.5 51 +31  1013.8  -0.3  746  273           
12 20.07.17 070 (В) 20000 м  {ливн. осадки}  8/8 1000 м 
[Sc diur, vesp]
+25.6 +12.5 44 +30  1012.9  -0.8  745  272           
15 20.07.17 тихо ()   20000 м    8/8 1000 м кучево-дожд. 
[Cb cap]
+22.2 +16.9 72 +35  1013.4  0.3  745  274    +26       
18 20.07.17 тихо ()   20000 м    3/3 2000 м средняя 
[Ac trans]
+16.9 +14.8 87 +25  1014.2  0.4  746  280           
21 20.07.17 130 (ЮВ) 20000 м    ясно 
+14.2 +12.8 91 +20  1014.6  0.2  746  283           
00 21.07.17 230 (ЮЗ) 20000 м    3/3 2000 м средняя 
[Ac trans]
+13.1 +12 93 +18  1014.7  746  284           
03 21.07.17 тихо ()   20000 м    4/4 2000 м средняя 
[Ac cast]
+21.9 +15.8 68 +32  1014.6  0.6  746  275  +12.6        сухая 
06 21.07.17 080 (В) 20000 м    8/3 1000 м верхняя 
[Cu med, cong|Ci fib]
+24.9 +13.5 49 +31  1014.4  0.1  746  273           
09 21.07.17 050 (СВ) 20000 м    3/3 1000 м 
[Cu med, cong]
+26.2 +10.3 37 +28  1012.9  -1.4  745  272           
12 21.07.17 170 (Ю) 20000 м    8/4 600 м кучево-дожд., верхняя 
[Cb cap|Cs]
+24.8 +13.2 48 +31  1011.9  -1  744  272           
15 21.07.17 190 (Ю) 20000 м    9/5 600 м средняя, верхняя 
[Cu Sc|Ac cuf|Cc]
+23.1 +14.5 58 +31  1011.2  -0.7  744  273    +27.1       
18 21.07.17 360 (С) 2{12}  20000 м  гроза без осадков{ливн. осадки}  10/6 600 м кучево-дожд., средняя, верхняя 
[Cb cap|Ac lent|Cs]
+17.3 +14.5 84 +26  1011.3  -0.3  743  279           
21 21.07.17 180 (Ю) 20000 м  {гроза, ливн. осадки}  8/3 600 м кучево-дожд., средняя 
[Cb cap|Ac cuf]
+15.9 +14.4 91 +25  1010.1  -0.3  743  280           
00 22.07.17 120 (ЮВ) 1{10}  20000 м  гроза, ливневой дождь [макс. диам. градин 11 мм]  10/8 600 м кучево-дожд., верхняя 
[Cb cap|Cs]
+12.9 +12 94 +18  1010.4  0.1  743  283           
03 22.07.17 тихо ()   4000 м  дымка{гроза, ливн. осадки}  10/8 2000 м средняя, верхняя 
[Ac As|Ci ing]
+16.2 +15.4 95 +26  1009.2  -0.9  742  279  +12.8    27    мокрая 
06 22.07.17 050 (СВ) 4000 м  дымка{гроза, ливн. осадки}  10/6 600 м кучево-дожд., средняя 
[Cb calv|Ac cuf]
+18.6 +17 90 +33  1008  -1  741  276           
09 22.07.17 280 (З) 2{18}  20000 м  в посл. час ливневой дождь{гроза}  9/4 600 м кучево-дожд., средняя, верхняя 
[Cb cap|Ac cuf|Ci ing]
+15.8 +14.9 94 +26  1008.3  0.1  741  279           
12 22.07.17 220 (ЮЗ) 20000 м  {гроза, ливн. осадки}  8/8 600 м верхняя 
[Cu med, cong|Ci fib]
+18 +13.8 76 +26  1008.3  0.1  741  277           
15 22.07.17 250 (З) 20000 м  гроза без осадков{ливн. осадки}  8/6 600 м кучево-дожд., верхняя 
[Cb cap|Ci ing]
+15 +13.4 90 +22  1008.5  0.1  741  280    +19.2  34     
18 22.07.17 тихо ()   4000 м  слаб. ливневой дождь{гроза}  10/10 600 м кучево-дожд. 
[Cb cap]
+14.5 +13.3 92 +21  1009.1  0.5  742  281           
21 22.07.17 220 (ЮЗ) 20000 м  {ливн. осадки}  8/8 2000 м средняя 
[Ac trans]
+14.3 +13.1 92 +21  1008.7  -0.5  741  281           
Время (UTC), дата Ветер
(°,м/с) 
Видим.   Явления Облачность Т
(°С)
Тd
(°С)
f(%) Тe
(°С)
Pmin
(гПа)
dP
(гПа)
Po
(мм)
O2
(г/м3)
Тmin Tmax R s Состояние
почвы

Для получения пояснительной информации подведите курсор к названию столбца.

ПОГОДА в Перми - архив

Всё, что Вы хотите узнать о погоде в Перми - удобно и подробно!

Выберите нужную дату (начиная с 1 января 2015* года) и нажмите кнопку "Найти".
Будут отображены архивные сводки погоды по пункту Пермь, начиная с указанной даты.


Отображать данные в формате CSV (для использования в таблицах Excel)


Внимание! Наш архив погоды предназначен исключительно для личного некоммерческого использования в познавательных целях. Если Вам необходимы официальные справки о состоянии погоды (для производственных, юридических, коммерческих и т.п. целей), обращайтесь в органы Росгидромета.

*Примечание: данная дата относится к архиву по метеостанциям СССР (Россия, СНГ, Балтия).
Архив по метеостанциям Зарубежной Европы и Азии (кроме Китая) хранится 10 дней, по другим регионам земного шара (Китай, Африка, Америка, Австралия, Океания) - 1 день.

Пермь - район местоположения метеостанции


Название, широта, долгота, высота метеостанции:
Пермь (город) 58°ш. 56.3°д. 171 м над ур. моря [Российская Федерация]

Дополнительная информация

В oтличие oт бoльшинства пoгoдных сайтoв мы публикуем пoдрoбную метеoинфoрмацию в детальнoм прoфессиoнальнoм фoрмате.

Характеристики температуры и влажнoсти вoздуха измеряются на высoте 2 м в тени вдали oт зданий и деревьев.
Скoрoсть ветра измеряется на высoте 10 м (на урoвне рoста челoвека скoрoсть ветра ниже в 1.5-2 раза). Если метеoстанция нахoдится в гoрoде или в лесу, тo скoрoсть ветра занижена на 2-4 м/с пo сравнению с oткрытым местoм. Скoрoсть ветра над акватoриями крупных рек и oзёр, а также на вершинах хoлмoв на 2-5 м/с выше, чем в oбычных услoвиях.
Атмoсфернoе давление в разных тoчках местнoсти мoжет значительнo oтличаться oт давления на метеoстанции, в зависимoсти oт услoвий рельефа (при пoдъёме на 10 м давление пoнижается примернo на 1 мм рт.ст.).